Select another period ( hide this area )

Units Period Custom range Directly to
Metric English Both
Daily Weekly Monthly Yearly
use both date-selectors for a custom range
previous Day
With this date

WeatherUnderground graphs for this period ( click here ) Loading the graph can take up to a minute!


Daily Summary for Friday Apr 26 2019
Time Temp. ( °C ) Dew pt. ( °C ) Wind ( km/h ) From Gust ( km/h ) Pressure ( hPa ) Humid.( % ) Rainrate ( cm )
High16,9 8,7 13,0 WNW ( 55/223 ) 12,9 1014,8 91 -
Average11,0 7,6 1,3 Kalm #122/173 3,6 1012,5 81 -
Low8,3 5,9 -   0,0 1009,4 50 -
Daily Tabular details for Friday Apr 26 2019
Time Temp. ( °C ) Dew pt. ( °C ) Wind ( km/h ) From Gust ( km/h ) Pressure ( hPa ) Humid.( % ) Rainrate ( cm )
00:04 10,3 8,1   Kalm 3,2 1009,7 86 -
00:09 10,3 8,1   Kalm   1009,4 86 -
00:14 10,2 8,0   Kalm 1,6 1009,7 86 -
00:18 10,2 8,0   Kalm   1009,7 86 -
00:24 10,2 8,1   Kalm 1,6 1010,0 87 -
00:29 10,1 8,0   Kalm   1010,0 87 -
00:34 10,0 7,9   Kalm 1,6 1010,0 87 -
00:39 9,9 7,8   Kalm 1,6 1010,4 87 -
00:44 9,9 7,8   Kalm 1,6 1010,4 87 -
00:49 9,8 7,9   Kalm 1,6 1010,4 88 -
00:54 9,8 7,9   Kalm   1010,4 88 -
00:59 9,8 7,9   Kalm   1010,4 88 -
01:04 9,8 7,9   Kalm   1010,0 88 -
01:09 9,7 7,8   Kalm 1,6 1010,4 88 -
01:14 9,7 7,8   Kalm   1010,0 88 -
01:19 9,7 7,8   Kalm   1010,4 88 -
01:24 9,7 7,8   Kalm 1,6 1010,4 88 -
01:29 9,8 8,1   Kalm 1,6 1010,4 89 -
01:34 9,8 8,1 1,4 East 1,6 1010,4 89 -
01:39 9,8 7,9   Kalm 1,6 1010,4 88 -
01:44 9,8 7,9   Kalm 1,6 1010,7 88 -
01:49 9,8 7,9   Kalm 1,6 1010,4 88 -
01:54 9,7 7,8   Kalm 4,8 1010,4 88 -
01:59 9,7 7,8   Kalm 3,2 1010,4 88 -
02:04 9,6 7,7 1,4 East 1,6 1010,7 88 -
02:10 9,6 7,9 4,8 East 4,8 1010,7 89 -
02:14 9,6 7,9   Kalm 3,2 1010,7 89 -
02:19 9,6 7,9   Kalm 1,6 1010,7 89 -
02:24 9,6 7,9   Kalm 1,6 1010,7 89 -
02:29 9,6 7,9   Kalm 1,6 1011,1 89 -
02:34 9,6 7,9   Kalm 3,2 1010,7 89 -
02:39 9,6 7,9   Kalm 1,6 1011,1 89 -
02:44 9,6 7,7   Kalm 1,6 1011,1 88 -
02:49 9,6 7,9   Kalm 1,6 1011,1 89 -
02:54 9,5 7,8   Kalm 3,2 1011,1 89 -
02:59 9,5 7,8 4,8 ESE 4,8 1011,1 89 -
03:04 9,5 7,8   Kalm 1,6 1011,1 89 -
03:09 9,4 7,7   Kalm 1,6 1011,1 89 -
03:14 9,4 7,7   Kalm 3,2 1011,1 89 -
03:19 9,4 7,7   Kalm   1011,1 89 -
03:24 9,4 7,7   Kalm 1,6 1011,1 89 -
03:29 9,3 7,6   Kalm 1,6 1011,1 89 -
03:34 9,3 7,6   Kalm 1,6 1011,1 89 -
03:39 9,4 7,7   Kalm 3,2 1011,1 89 -
03:44 9,4 7,7   Kalm 1,6 1011,1 89 -
03:49 9,3 7,6   Kalm 1,6 1010,7 89 -
03:54 9,3 7,6   Kalm 1,6 1010,7 89 -
03:59 9,3 7,6   Kalm   1010,7 89 -
04:04 9,3 7,6   Kalm   1011,1 89 -
04:09 9,2 7,5   Kalm 1,6 1011,1 89 -
04:14 9,2 7,5   Kalm   1011,1 89 -
04:19 9,2 7,5   Kalm 1,6 1011,1 89 -
04:24 9,1 7,4   Kalm 1,6 1011,4 89 -
04:29 9,1 7,4   Kalm 1,6 1011,4 89 -
04:34 9,0 7,4   Kalm   1011,4 90 -
04:39 8,9 7,3   Kalm   1011,4 90 -
04:43 8,9 7,3   Kalm   1011,4 90 -
04:49 8,9 7,3   Kalm   1011,4 90 -
04:54 8,8 7,2   Kalm 1,6 1011,7 90 -
04:59 8,8 7,2   Kalm 1,6 1011,7 90 -
05:04 8,8 7,2   Kalm 1,6 1011,7 90 -
05:09 8,7 7,2   Kalm   1011,7 90 -
05:14 8,8 7,4   Kalm   1011,7 91 -
05:19 8,7 7,3   Kalm   1011,7 91 -
05:24 8,7 7,3   Kalm 1,6 1011,7 91 -
05:29 8,7 7,3   Kalm 1,6 1012,1 91 -
05:34 8,7 7,3   Kalm 1,6 1012,1 91 -
05:39 8,7 7,3   Kalm 1,6 1011,7 91 -
05:44 8,7 7,3   Kalm 3,2 1011,7 91 -
05:49 8,7 7,2   Kalm 1,6 1011,7 90 -
05:54 8,7 7,2   Kalm   1011,7 90 -
05:59 8,7 7,2   Kalm 1,6 1011,7 90 -
06:04 8,6 7,1   Kalm   1011,7 90 -
06:09 8,5 7,0   Kalm   1011,7 90 -
06:14 8,4 6,9   Kalm   1011,7 90 -
06:19 8,3 6,9   Kalm   1011,7 91 -
06:24 8,3 6,9   Kalm   1011,7 91 -
06:29 8,3 6,9   Kalm   1012,1 91 -
06:34 8,3 6,9   Kalm   1012,1 91 -
06:39 8,3 6,9   Kalm   1012,4 91 -
06:44 8,3 6,9   Kalm 1,6 1012,4 91 -
06:49 8,3 6,9   Kalm   1012,4 91 -
06:54 8,3 6,9   Kalm 1,6 1012,8 91 -
06:59 8,4 7,0   Kalm 1,6 1012,4 91 -
07:04 8,4 7,0   Kalm   1012,8 91 -
07:09 8,4 7,0 4,8 East 4,8 1012,8 91 -
07:14 8,4 7,0   Kalm   1012,8 91 -
07:19 8,5 7,1   Kalm 1,6 1012,4 91 -
07:24 8,4 7,0   Kalm 1,6 1012,1 91 -
07:29 8,4 7,0   Kalm 4,8 1012,1 91 -
07:34 8,4 7,0   Kalm 3,2 1012,1 91 -
07:39 8,4 7,0   Kalm 3,2 1012,4 91 -
07:44 8,5 7,1   Kalm 4,8 1012,4 91 -
07:49 8,6 7,2 1,4 East 3,2 1012,8 91 -
07:54 8,8 7,4   Kalm 1,6 1012,8 91 -
07:59 8,9 7,5 1,4 East 1,6 1013,4 91 -
08:04 9,0 7,4   Kalm 1,6 1013,4 90 -
08:09 9,1 7,5   Kalm 1,6 1013,4 90 -
08:14 9,1 7,5   Kalm 1,6 1013,4 90 -
08:19 9,2 7,6   Kalm 1,6 1013,8 90 -
08:23 9,3 7,6   Kalm 1,6 1014,1 89 -
08:25 9,3 7,6 1,4 ENE 1,6 1013,8 89 -
08:32 9,4 7,7 1,4 ENE 1,6 1014,1 89 -
08:38 9,6 7,9   Kalm   1013,8 89 -
08:42 9,7 7,8   Kalm 1,6 1013,8 88 -
08:48 9,8 7,9 1,4 ENE 3,2 1013,4 88 -
08:54 9,9 8,0 4,7 WNW 4,8 1013,4 88 -
08:59 10,0 7,9   Kalm 4,8 1013,4 87 -
09:04 10,1 8,0   Kalm 4,8 1013,4 87 -
09:09 10,2 8,0 3,2 WNW 6,4 1013,1 86 -
09:14 10,3 8,2 1,4 WNW 8,0 1013,1 87 -
09:19 10,4 8,2   Kalm 1,6 1013,1 86 -
09:24 10,5 8,3   Kalm 6,4 1013,1 86 -
09:29 10,6 8,2 1,4 WNW 11,3 1013,4 85 -
09:34 10,7 8,1 4,7 WNW 8,0 1013,4 84 -
09:39 10,6 8,0   Kalm 6,4 1013,8 84 -
09:44 10,8 8,2 3,2 West 4,8 1014,4 84 -
09:49 10,9 8,1   Kalm 3,2 1014,4 83 -
09:54 11,1 8,3   Kalm 1,6 1014,4 83 -
09:59 11,3 8,3 4,8 NE 4,8 1014,4 82 -
10:04 11,4 8,3   Kalm 1,6 1014,4 81 -
10:09 11,6 8,5   Kalm 1,6 1014,4 81 -
10:14 11,7 8,4 1,4 ESE 1,6 1014,4 80 -
10:19 11,8 8,3 1,4 ESE 4,8 1014,4 79 -
10:24 11,9 8,4   Kalm 1,6 1014,4 79 -
10:29 12,1 8,6 3,2 West 3,2 1014,1 79 -
10:34 12,3 8,6   Kalm 1,6 1014,4 78 -
10:39 12,4 8,3 9,7 West 9,7 1014,1 76 -
10:44 12,4 8,5   Kalm 3,2 1014,1 77 -
10:49 12,6 8,3   Kalm 4,8 1014,4 75 -
10:54 12,8 8,7 8,0 WNW 8,0 1014,4 76 -
10:59 12,9 8,4 3,2 West 4,8 1014,4 74 -
11:04 13,1 8,6   Kalm 1,6 1014,4 74 -
11:09 13,3 8,4 4,7 ESE 4,8 1014,4 72 -
11:14 13,4 8,5   Kalm 1,6 1014,4 72 -
11:19 13,7 8,5   Kalm 9,7 1014,4 71 -
11:24 14,0 8,2 3,2 SW 11,3 1014,4 68 -
11:29 14,3 8,7   Kalm 4,8 1014,1 69 -
11:34 14,5 8,0 8,0 West 11,3 1014,1 65 -
11:39 14,6 8,3 3,2 East 3,2 1014,1 66 -
11:44 14,7 8,0   Kalm 4,8 1014,4 64 -
11:49 14,9 8,1   Kalm 3,2 1014,4 64 -
11:54 15,1 7,9 3,2 NNW 12,9 1014,4 62 -
11:59 14,9 7,4 13,0 WSW 12,9 1014,4 61 -
12:04 14,9 7,4   Kalm 9,7 1014,4 61 -
12:09 15,0 7,3   Kalm 6,4 1014,4 60 -
12:14 15,2 7,7 3,2 East 8,0 1014,4 61 -
12:19 15,3 7,8 1,4 NW 8,0 1014,4 61 -
12:24 15,3 7,6 4,7 ESE 8,0 1014,4 60 -
12:29 15,2 7,5 1,4 ESE 9,7 1014,4 60 -
12:34 15,2 7,5 4,7 East 8,0 1014,4 60 -
12:39 15,2 7,5 1,4 West 12,9 1014,4 60 -
12:44 15,3 7,3 4,7 SW 12,9 1014,4 59 -
12:49 15,4 7,2 6,4 West 6,4 1014,4 58 -
12:54 15,4 7,2 6,4 WNW 12,9 1014,4 58 -
12:59 15,3 6,8 11,1 WNW 12,9 1014,4 57 -
13:04 15,1 6,9 7,9 West 9,7 1014,4 58 -
13:09 15,1 7,1 4,7 WNW 9,7 1014,4 59 -
13:14 15,1 6,9   Kalm 9,7 1014,4 58 -
13:19 15,6 7,6   Kalm 11,3 1014,4 59 -
13:24 16,2 7,4   Kalm 3,2 1014,4 56 -
13:29 16,3 7,2 3,2 NE 4,8 1014,4 55 -
13:34 16,5 6,9   Kalm 3,2 1014,4 53 -
13:39 16,9 7,3 6,4 NW 11,3 1014,4 53 -
13:44 16,7 6,8 3,2 West 8,0 1014,4 52 -
13:49 16,4 6,8 7,9 West 8,0 1014,4 53 -
13:54 16,3 7,2 6,4 WSW 6,4 1014,4 55 -
13:59 16,6 7,5 4,7 East 4,8 1014,4 55 -
14:04 16,4 5,9 9,7 WNW 11,3 1014,4 50 -
14:09 16,3 5,9 7,9 NW 8,0 1014,4 50 -
14:14 16,3 6,4   Kalm 8,0 1014,8 52 -
14:19 16,7 6,5 4,7 East 6,4 1014,4 51 -
14:24 16,8 6,3 1,4 NW 12,9 1014,8 50 -
Daily Summary for Friday Apr 26 2019
Time Temp. ( °C ) Dew pt. ( °C ) Wind ( km/h ) From Gust ( km/h ) Pressure ( hPa ) Humid.( % ) Rainrate ( cm )
High16,9 8,7 13,0 WNW ( 55/223 ) 12,9 1014,8 91 -
Average11,0 7,6 1,3 Kalm #122/173 3,6 1012,5 81 -
Low8,3 5,9 -   0,0 1009,4 50 -
Daily Tabular details for Friday Apr 26 2019
Time Temp. ( °C ) Dew pt. ( °C ) Wind ( km/h ) From Gust ( km/h ) Pressure ( hPa ) Humid.( % ) Rainrate ( cm )
00:04 10,3 8,1   Kalm 3,2 1009,7 86 -
00:09 10,3 8,1   Kalm   1009,4 86 -
00:14 10,2 8,0   Kalm 1,6 1009,7 86 -
00:18 10,2 8,0   Kalm   1009,7 86 -
00:24 10,2 8,1   Kalm 1,6 1010,0 87 -
00:29 10,1 8,0   Kalm   1010,0 87 -
00:34 10,0 7,9   Kalm 1,6 1010,0 87 -
00:39 9,9 7,8   Kalm 1,6 1010,4 87 -
00:44 9,9 7,8   Kalm 1,6 1010,4 87 -
00:49 9,8 7,9   Kalm 1,6 1010,4 88 -
00:54 9,8 7,9   Kalm   1010,4 88 -
00:59 9,8 7,9   Kalm   1010,4 88 -
01:04 9,8 7,9   Kalm   1010,0 88 -
01:09 9,7 7,8   Kalm 1,6 1010,4 88 -
01:14 9,7 7,8   Kalm   1010,0 88 -
01:19 9,7 7,8   Kalm   1010,4 88 -
01:24 9,7 7,8   Kalm 1,6 1010,4 88 -
01:29 9,8 8,1   Kalm 1,6 1010,4 89 -
01:34 9,8 8,1 1,4 East 1,6 1010,4 89 -
01:39 9,8 7,9   Kalm 1,6 1010,4 88 -
01:44 9,8 7,9   Kalm 1,6 1010,7 88 -
01:49 9,8 7,9   Kalm 1,6 1010,4 88 -
01:54 9,7 7,8   Kalm 4,8 1010,4 88 -
01:59 9,7 7,8   Kalm 3,2 1010,4 88 -
02:04 9,6 7,7 1,4 East 1,6 1010,7 88 -
02:10 9,6 7,9 4,8 East 4,8 1010,7 89 -
02:14 9,6 7,9   Kalm 3,2 1010,7 89 -
02:19 9,6 7,9   Kalm 1,6 1010,7 89 -
02:24 9,6 7,9   Kalm 1,6 1010,7 89 -
02:29 9,6 7,9   Kalm 1,6 1011,1 89 -
02:34 9,6 7,9   Kalm 3,2 1010,7 89 -
02:39 9,6 7,9   Kalm 1,6 1011,1 89 -
02:44 9,6 7,7   Kalm 1,6 1011,1 88 -
02:49 9,6 7,9   Kalm 1,6 1011,1 89 -
02:54 9,5 7,8   Kalm 3,2 1011,1 89 -
02:59 9,5 7,8 4,8 ESE 4,8 1011,1 89 -
03:04 9,5 7,8   Kalm 1,6 1011,1 89 -
03:09 9,4 7,7   Kalm 1,6 1011,1 89 -
03:14 9,4 7,7   Kalm 3,2 1011,1 89 -
03:19 9,4 7,7   Kalm   1011,1 89 -
03:24 9,4 7,7   Kalm 1,6 1011,1 89 -
03:29 9,3 7,6   Kalm 1,6 1011,1 89 -
03:34 9,3 7,6   Kalm 1,6 1011,1 89 -
03:39 9,4 7,7   Kalm 3,2 1011,1 89 -
03:44 9,4 7,7   Kalm 1,6 1011,1 89 -
03:49 9,3 7,6   Kalm 1,6 1010,7 89 -
03:54 9,3 7,6   Kalm 1,6 1010,7 89 -
03:59 9,3 7,6   Kalm   1010,7 89 -
04:04 9,3 7,6   Kalm   1011,1 89 -
04:09 9,2 7,5   Kalm 1,6 1011,1 89 -
04:14 9,2 7,5   Kalm   1011,1 89 -
04:19 9,2 7,5   Kalm 1,6 1011,1 89 -
04:24 9,1 7,4   Kalm 1,6 1011,4 89 -
04:29 9,1 7,4   Kalm 1,6 1011,4 89 -
04:34 9,0 7,4   Kalm   1011,4 90 -
04:39 8,9 7,3   Kalm   1011,4 90 -
04:43 8,9 7,3   Kalm   1011,4 90 -
04:49 8,9 7,3   Kalm   1011,4 90 -
04:54 8,8 7,2   Kalm 1,6 1011,7 90 -
04:59 8,8 7,2   Kalm 1,6 1011,7 90 -
05:04 8,8 7,2   Kalm 1,6 1011,7 90 -
05:09 8,7 7,2   Kalm   1011,7 90 -
05:14 8,8 7,4   Kalm   1011,7 91 -
05:19 8,7 7,3   Kalm   1011,7 91 -
05:24 8,7 7,3   Kalm 1,6 1011,7 91 -
05:29 8,7 7,3   Kalm 1,6 1012,1 91 -
05:34 8,7 7,3   Kalm 1,6 1012,1 91 -
05:39 8,7 7,3   Kalm 1,6 1011,7 91 -
05:44 8,7 7,3   Kalm 3,2 1011,7 91 -
05:49 8,7 7,2   Kalm 1,6 1011,7 90 -
05:54 8,7 7,2   Kalm   1011,7 90 -
05:59 8,7 7,2   Kalm 1,6 1011,7 90 -
06:04 8,6 7,1   Kalm   1011,7 90 -
06:09 8,5 7,0   Kalm   1011,7 90 -
06:14 8,4 6,9   Kalm   1011,7 90 -
06:19 8,3 6,9   Kalm   1011,7 91 -
06:24 8,3 6,9   Kalm   1011,7 91 -
06:29 8,3 6,9   Kalm   1012,1 91 -
06:34 8,3 6,9   Kalm   1012,1 91 -
06:39 8,3 6,9   Kalm   1012,4 91 -
06:44 8,3 6,9   Kalm 1,6 1012,4 91 -
06:49 8,3 6,9   Kalm   1012,4 91 -
06:54 8,3 6,9   Kalm 1,6 1012,8 91 -
06:59 8,4 7,0   Kalm 1,6 1012,4 91 -
07:04 8,4 7,0   Kalm   1012,8 91 -
07:09 8,4 7,0 4,8 East 4,8 1012,8 91 -
07:14 8,4 7,0   Kalm   1012,8 91 -
07:19 8,5 7,1   Kalm 1,6 1012,4 91 -
07:24 8,4 7,0   Kalm 1,6 1012,1 91 -
07:29 8,4 7,0   Kalm 4,8 1012,1 91 -
07:34 8,4 7,0   Kalm 3,2 1012,1 91 -
07:39 8,4 7,0   Kalm 3,2 1012,4 91 -
07:44 8,5 7,1   Kalm 4,8 1012,4 91 -
07:49 8,6 7,2 1,4 East 3,2 1012,8 91 -
07:54 8,8 7,4   Kalm 1,6 1012,8 91 -
07:59 8,9 7,5 1,4 East 1,6 1013,4 91 -
08:04 9,0 7,4   Kalm 1,6 1013,4 90 -
08:09 9,1 7,5   Kalm 1,6 1013,4 90 -
08:14 9,1 7,5   Kalm 1,6 1013,4 90 -
08:19 9,2 7,6   Kalm 1,6 1013,8 90 -
08:23 9,3 7,6   Kalm 1,6 1014,1 89 -
08:25 9,3 7,6 1,4 ENE 1,6 1013,8 89 -
08:32 9,4 7,7 1,4 ENE 1,6 1014,1 89 -
08:38 9,6 7,9   Kalm   1013,8 89 -
08:42 9,7 7,8   Kalm 1,6 1013,8 88 -
08:48 9,8 7,9 1,4 ENE 3,2 1013,4 88 -
08:54 9,9 8,0 4,7 WNW 4,8 1013,4 88 -
08:59 10,0 7,9   Kalm 4,8 1013,4 87 -
09:04 10,1 8,0   Kalm 4,8 1013,4 87 -
09:09 10,2 8,0 3,2 WNW 6,4 1013,1 86 -
09:14 10,3 8,2 1,4 WNW 8,0 1013,1 87 -
09:19 10,4 8,2   Kalm 1,6 1013,1 86 -
09:24 10,5 8,3   Kalm 6,4 1013,1 86 -
09:29 10,6 8,2 1,4 WNW 11,3 1013,4 85 -
09:34 10,7 8,1 4,7 WNW 8,0 1013,4 84 -
09:39 10,6 8,0   Kalm 6,4 1013,8 84 -
09:44 10,8 8,2 3,2 West 4,8 1014,4 84 -
09:49 10,9 8,1   Kalm 3,2 1014,4 83 -
09:54 11,1 8,3   Kalm 1,6 1014,4 83 -
09:59 11,3 8,3 4,8 NE 4,8 1014,4 82 -
10:04 11,4 8,3   Kalm 1,6 1014,4 81 -
10:09 11,6 8,5   Kalm 1,6 1014,4 81 -
10:14 11,7 8,4 1,4 ESE 1,6 1014,4 80 -
10:19 11,8 8,3 1,4 ESE 4,8 1014,4 79 -
10:24 11,9 8,4   Kalm 1,6 1014,4 79 -
10:29 12,1 8,6 3,2 West 3,2 1014,1 79 -
10:34 12,3 8,6   Kalm 1,6 1014,4 78 -
10:39 12,4 8,3 9,7 West 9,7 1014,1 76 -
10:44 12,4 8,5   Kalm 3,2 1014,1 77 -
10:49 12,6 8,3   Kalm 4,8 1014,4 75 -
10:54 12,8 8,7 8,0 WNW 8,0 1014,4 76 -
10:59 12,9 8,4 3,2 West 4,8 1014,4 74 -
11:04 13,1 8,6   Kalm 1,6 1014,4 74 -
11:09 13,3 8,4 4,7 ESE 4,8 1014,4 72 -
11:14 13,4 8,5   Kalm 1,6 1014,4 72 -
11:19 13,7 8,5   Kalm 9,7 1014,4 71 -
11:24 14,0 8,2 3,2 SW 11,3 1014,4 68 -
11:29 14,3 8,7   Kalm 4,8 1014,1 69 -
11:34 14,5 8,0 8,0 West 11,3 1014,1 65 -
11:39 14,6 8,3 3,2 East 3,2 1014,1 66 -
11:44 14,7 8,0   Kalm 4,8 1014,4 64 -
11:49 14,9 8,1   Kalm 3,2 1014,4 64 -
11:54 15,1 7,9 3,2 NNW 12,9 1014,4 62 -
11:59 14,9 7,4 13,0 WSW 12,9 1014,4 61 -
12:04 14,9 7,4   Kalm 9,7 1014,4 61 -
12:09 15,0 7,3   Kalm 6,4 1014,4 60 -
12:14 15,2 7,7 3,2 East 8,0 1014,4 61 -
12:19 15,3 7,8 1,4 NW 8,0 1014,4 61 -
12:24 15,3 7,6 4,7 ESE 8,0 1014,4 60 -
12:29 15,2 7,5 1,4 ESE 9,7 1014,4 60 -
12:34 15,2 7,5 4,7 East 8,0 1014,4 60 -
12:39 15,2 7,5 1,4 West 12,9 1014,4 60 -
12:44 15,3 7,3 4,7 SW 12,9 1014,4 59 -
12:49 15,4 7,2 6,4 West 6,4 1014,4 58 -
12:54 15,4 7,2 6,4 WNW 12,9 1014,4 58 -
12:59 15,3 6,8 11,1 WNW 12,9 1014,4 57 -
13:04 15,1 6,9 7,9 West 9,7 1014,4 58 -
13:09 15,1 7,1 4,7 WNW 9,7 1014,4 59 -
13:14 15,1 6,9   Kalm 9,7 1014,4 58 -
13:19 15,6 7,6   Kalm 11,3 1014,4 59 -
13:24 16,2 7,4   Kalm 3,2 1014,4 56 -
13:29 16,3 7,2 3,2 NE 4,8 1014,4 55 -
13:34 16,5 6,9   Kalm 3,2 1014,4 53 -
13:39 16,9 7,3 6,4 NW 11,3 1014,4 53 -
13:44 16,7 6,8 3,2 West 8,0 1014,4 52 -
13:49 16,4 6,8 7,9 West 8,0 1014,4 53 -
13:54 16,3 7,2 6,4 WSW 6,4 1014,4 55 -
13:59 16,6 7,5 4,7 East 4,8 1014,4 55 -
14:04 16,4 5,9 9,7 WNW 11,3 1014,4 50 -
14:09 16,3 5,9 7,9 NW 8,0 1014,4 50 -
14:14 16,3 6,4   Kalm 8,0 1014,8 52 -
14:19 16,7 6,5 4,7 East 6,4 1014,4 51 -
14:24 16,8 6,3 1,4 NW 12,9 1014,8 50 -

Download your copy of this data-set  from WeatherUnderground

Our weather-data as stored at Weather Underground. Original script b Jim McMurry. Rewritten for template use Leuven-Template